Content
SEND FEEDBACK

Daily
Averages
Monthly
Summary
United States of America

STEAMBOAT SPRINGS, COLORADO


Home > North America > United States > Colorado
Elevation: 6917 feet     Latitude: 40 30N     Longitude: 106 50W

WEATHER
 
SELECT A DAY
Number of Records: 93,863;   Date Range: 1/3/95 - 12/17/14
 
SHARE

PRINT THIS DATA

[ ← Previous Day ]
WEATHER ALMANAC - JANUARY 18, 2013
[ Next Day → ]
[ °C ]   °F
Weather ElementAverageHighLow
Temperature9 °F21.9 °F (3:35 pm)-2.4 °F (5:55 am)
Dewpoint1.7 °F8.6 °F (10:55 am)-7.4 °F (7:35 am)
Humidity73.8 %92 % (1:35 am)49 % (2:15 pm)
Barometer30.35 in30.40 in (12:35 am)30.29 in (4:35 pm)
Wind Speed0.1 mph3.5 mph (11:35 pm)
Weather ElementAverage
Visibility9.7 mi
Wind DirectionN (3.6 °)

Weather ElementTotal
Precipitation---
Heating Degree Days55.3 (Base 65)
Averaged from 69 records on January 18, 2013
WEATHER CONDITIONS BREAKOUT
WIND DIRECTION BREAKOUT
WEATHER BY HOUR - JANUARY 18, 2013
[ °C ]   °F
Local TimeTemperatureDewpointHumidityBarometerVisibilityWind DirectionWind SpeedGust SpeedPrecipitationEventsConditions
12:35 AM2.1 °F-0.2 °F90 %30.40 in10.0 miCalmClear
12:55 AM4.5 °F2.1 °F90 %30.40 in10.0 miCalmClear
1:15 AM3.2 °F-0.8 °F84 %30.40 in10.0 miCalmClear
1:35 AM4.8 °F2.8 °F92 %30.40 in10.0 miCalmClear
1:55 AM2.7 °F0.0 °F88 %30.40 in10.0 miCalmClear
2:15 AM2.7 °F0.3 °F90 %30.40 in10.0 miCalmClear
2:35 AM2.1 °F-0.6 °F88 %30.40 in7.0 miCalmClear
2:55 AM2.1 °F-1.3 °F86 %30.40 in10.0 miCalmClear
3:15 AM2.7 °F-1.3 °F84 %30.40 in10.0 miCalmClear
3:35 AM0.5 °F-4.0 °F81 %30.40 in10.0 miCalmClear
3:55 AM0.1 °F-4.0 °F83 %30.39 in10.0 miCalmClear
4:15 AM-0.4 °F-4.5 °F83 %30.39 in10.0 miCalmClear
4:35 AM-0.8 °F-5.1 °F82 %30.38 in10.0 miCalmClear
4:55 AM-1.7 °F-6.0 °F82 %30.38 in10.0 miCalmClear
5:15 AM0.1 °F-4.0 °F83 %30.38 in10.0 miCalmClear
5:35 AM1.2 °F-3.1 °F82 %30.38 in10.0 miCalmClear
5:55 AM-2.4 °F-7.1 °F80 %30.38 in4.0 miCalmClear
6:15 AM-0.9 °F-5.1 °F83 %30.38 in10.0 miCalmClear
6:35 AM-0.9 °F-5.4 °F81 %30.38 in10.0 miCalmClear
6:55 AM-1.8 °F-6.5 °F80 %30.38 in10.0 miCalmClear
7:15 AM-0.6 °F-5.1 °F81 %30.38 in10.0 miCalmClear
7:35 AM-2.4 °F-7.4 °F79 %30.38 in10.0 miCalmClear
7:55 AM-0.9 °F-5.8 °F80 %30.38 in10.0 miCalmClear
8:15 AM0.5 °F-3.8 °F82 %30.39 in10.0 miCalmClear
8:55 AM4.6 °F-0.4 °F80 %30.39 in10.0 miCalmClear
9:15 AM5.4 °F1.6 °F84 %30.40 in1.2 miCalm
9:35 AM8.6 °F4.5 °F83 %30.40 in10.0 miCalmClear
9:55 AM7.7 °F3.4 °F83 %30.40 in10.0 miCalmClear
10:15 AM6.1 °F0.5 °F78 %30.40 in10.0 miCalmClear
10:35 AM2.1 °F-2.9 °F79 %30.40 in10.0 miCalmClear
10:55 AM12.7 °F8.6 °F84 %30.38 in10.0 miCalmClear
11:15 AM15.4 °F7.5 °F71 %30.37 in10.0 miCalmClear
11:35 AM16.3 °F4.5 °F60 %30.35 in10.0 miCalmClear
11:55 AM13.6 °F1.9 °F60 %30.35 in10.0 miCalmClear
12:15 PM17.6 °F4.5 °F56 %30.34 in10.0 miCalmClear
12:35 PM15.4 °F2.7 °F57 %30.33 in10.0 miCalmClear
12:55 PM19.0 °F4.5 °F53 %30.32 in10.0 miCalmClear
1:15 PM19.4 °F5.2 °F54 %30.32 in10.0 miCalmClear
1:35 PM18.1 °F4.5 °F55 %30.31 in10.0 miCalmClear
1:55 PM20.5 °F5.5 °F53 %30.31 in10.0 miCalmClear
2:15 PM21.6 °F5.0 °F49 %30.30 in10.0 miCalmClear
2:35 PM20.8 °F4.6 °F50 %30.31 in10.0 miCalmClear
2:55 PM21.6 °F5.9 °F51 %30.30 in10.0 miCalmClear
3:15 PM21.0 °F5.9 °F52 %30.30 in10.0 miCalmClear
3:35 PM21.9 °F5.9 °F50 %30.30 in10.0 miCalmClear
3:55 PM21.7 °F6.8 °F53 %30.30 in10.0 miCalmClear
4:15 PM20.3 °F6.3 °F55 %30.30 in10.0 miCalmClear
4:35 PM19.4 °F6.3 °F57 %30.29 in10.0 miCalmClear
4:55 PM19.0 °F7.0 °F59 %30.30 in10.0 miCalmClear
5:15 PM18.7 °F7.2 °F61 %30.31 in10.0 miCalmClear
5:35 PM17.2 °F6.3 °F62 %30.30 in10.0 miCalmClear
5:55 PM14.2 °F5.5 °F69 %30.30 in10.0 miCalmClear
6:15 PM12.9 °F5.0 °F71 %30.31 in10.0 miCalmClear
6:35 PM12.4 °F4.8 °F72 %30.31 in10.0 miCalmClear
6:55 PM12.9 °F5.4 °F72 %30.31 in10.0 miCalmClear
7:15 PM12.6 °F4.6 °F71 %30.31 in10.0 miCalmClear
7:35 PM12.7 °F5.0 °F71 %30.31 in10.0 miCalmClear
7:55 PM11.1 °F4.3 °F74 %30.30 in10.0 miCalmClear
8:35 PM10.9 °F4.8 °F76 %30.30 in10.0 miCalmClear
8:55 PM9.0 °F3.9 °F80 %30.30 in10.0 miCalmClear
9:15 PM8.8 °F4.5 °F83 %30.30 in10.0 miCalmClear
9:35 PM8.6 °F3.9 °F81 %30.31 in10.0 miCalmClear
9:55 PM9.7 °F2.8 °F74 %30.30 in10.0 miCalmClear
10:15 PM6.4 °F1.8 °F81 %30.30 in10.0 miCalmClear
10:35 PM7.5 °F2.7 °F81 %30.30 in10.0 miCalmClear
10:55 PM9.0 °F4.3 °F81 %30.29 in10.0 miCalmClear
11:15 PM7.0 °F3.4 °F85 %30.30 in10.0 miCalmClear
11:35 PM7.0 °F3.0 °F84 %30.30 in10.0 miWSW (250°)3.5 mphClear
11:55 PM6.8 °F3.0 °F84 %30.31 in10.0 miCalmClear
Hourly data recorded from KSBS, located miles away from Steamboat Springs, Colorado







STORIES FROM OUR PARTNERS